User: anonymous   Login
Location: Unspecified
(0.0000°N, 0.0000°E)
Time: 20:16:51
(UTC+00:00)
Language:

STARLINK-2482 - Orbit

View from above orbital plane
View from above orbital plane
View from above satellite
View from above satellite

Ground track
Ground track

The orbit is defined by the following mean orbital elements,

1 48139U          26145.45142566 +.00000000 +00000-0 +62554-4 0 00005
2 48139  53.1578 155.7095 0001232  83.0281 277.0860 15.31709341    02
Epoch (UTC): 25 May 2026 10:50:03
Eccentricity: 0.0001232
inclination: 53.1578°
perigee height: 470 km
apogee height: 472 km
right ascension of ascending node: 155.7095°
argument of perigee: 83.0281°
revolutions per day: 15.31709341
mean anomaly at epoch: 277.0860°

The dashed part of the orbit path shows where the satellite is in the earth's shadow,  

DLR